Погода в Колывани

Погода в Колывани : погода сейчас, прогноз погоды и архив. Всё, что Вы хотите узнать о погоде в Колывани!

Хотите узнать прогноз погоды в Колывани? Тогда Вам сюда: Погода в Колывани

Поиск расширенной информации на нашем сайте:

Другие новости

Новости СМИ2

Главная страница сайта

Новости сайта

02.10.2013

Напоминаем, что на нашем новом сайте вы можете получить высокодетализированные прогнозы погоды по пунктам России, СНГ и мира (включающие важные для авиации метеовеличины, такие как направление и скорость ветра, видимость, явления погоды, количество и форма облачности, нижняя и верхняя граница облачности), а также ознакомиться с разнообразными материалами по авиационной метеорологии и подборкой полезных ссылок на эту тему.

Сайт Метеоцентр.Азия посвящён разработке технологий оптимизации авиаметеорологического обслуживания, включая проектирование и перспективное создание нескольких автоматизированных авиаметеорологических систем:
- система выпуска высокодетальных прогностических карт явлений погоды для нижнего воздушного пространства по России и ближнему зарубежью;
- система верификации прогнозов TAF (выпускаемых синоптиками официальных АМСГ РФ и ближнего зарубежья) и AUTOTAF (выпускаемых сайтом Метеоцентр.Азия) - выявление ошибок, онлайн-сопоставление с фактической погодой METAR, автоматическое внесение коррективов в прогнозы при резком отклонении фактической погоды от прогноза, подсчёт оправдываемости прогнозов по элементам и в целом;
- система обработки, анализа и отображения авиаметеорологической информации для применения провайдерами метеорологической информации.


Погода в Колывани - сегодня

Время (UTC), дата Ветер
(°,м/с) 
Видим.   Явления Облачность Т
(°С)
Тd
(°С)
f(%) Тe
(°С)
Pmin
(гПа)
dP
(гПа)
Po
(мм)
O2
(г/м3)
Тmin Tmax R s Состояние
почвы
06 26.05.17 280 (З) 3{10}  20000 м    10/10 1000 м 
[Sc]
+8.9 -2.7 44 +8  1021.5  2.3  753  294           
09 26.05.17 280 (З) 20000 м    9/9 1000 м 
[Sc]
+10.3 -2.1 42 +10  1022.8  1.4  754  293           
12 26.05.17 280 (З) 20000 м    8/8 1000 м 
[Sc]
+12.1 -1.8 38 +12  1023.3  0.6  754  291    +12.2       
15 26.05.17 290 (З) 20000 м    3/1 1500 м верхняя 
[Sc|Ci fib]
+7.3 +0 60 +8  1025.3  1.6  755  296           
18 26.05.17 030 (СВ) 20000 м    ясно 
+4.3 +0.6 77 +5  1026.8  1.4  756  300           
21 26.05.17 100 (В) 10 км    ясно 
+3.7 +2.2 90 +5  1027.8  0.9  757  301           
00 27.05.17 110 (В) 20000 м    ясно 
+6.1 +1.8 74 +6  1028.1  0.4  757  298  +2.1        мокрая 
03 27.05.17 160 (Ю) 20000 м    3/0 верхняя 
[Ci fib]
+12.6 +2.1 49 +13  1026.8  -0.8  757  291           
06 27.05.17 160 (Ю) 20000 м    5/0 верхняя 
[Ci fib]
+16.1 +0.3 34 +16  1024.4  -2.1  755  287           
09 27.05.17 150 (ЮВ) 20000 м    ясно 
+18.6 -1.9 25 +20  1021.5  -2.7  753  284           
12 27.05.17 180 (Ю) 20000 м    ясно 
+19.8 -3.8 20 +21  1019.3  -2.2  752  283    +19.9       
15 27.05.17 120 (ЮВ) 20000 м    ясно 
+12.7 -0.2 41 +14  1018  -1.7  750  289           
18 27.05.17 100 (В) 20000 м    ясно 
+11.9 +0.6 46 +12  1016.2  -1.8  749  289           
21 27.05.17 100 (В) 20000 м    3/0 верхняя 
[Ci fib]
+8.9 +1.9 61 +9  1015.1  -1.3  748  292           
00 28.05.17 080 (В) 20000 м    8/0 верхняя 
[Ci fib]
+10.6 +2.7 58 +11  1014.2  -0.7  747  289  +6.6        сухая 
03 28.05.17 110 (В) 20000 м    10/0 верхняя 
[Cc]
+18.9 +3.1 35 +20  1011.4  -2.3  746  281           
06 28.05.17 120 (ЮВ) 20000 м    10/0 верхняя 
[Cc]
+23.3 +0.3 22 +23  1008.2  -2.9  743  276           
09 28.05.17 170 (Ю) 20000 м    10/0 средняя, верхняя 
[Ac trans|Cs]
+26.8 -0.3 17 +27  1005.9  -2  742  272           
12 28.05.17 170 (Ю) 20000 м    9/1 1500 м средняя, верхняя 
[Sc|Ac trans|Cs]
+25.7 +2.3 22 +26  1004.2  -1.7  741  272    +27.6       
15 28.05.17 тихо ()   20000 м    10/8 1000 м верхняя 
[Sc|Ci fib]
+20.5 +1.3 28 +21  1003.8  -0.8  740  277           
18 28.05.17 тихо ()   20000 м    10/10 600 м кучево-дожд. 
[Cb cap]
+19.4 +2.2 32 +19  1002.3  -1.5  739  278           
21 28.05.17 200 (Ю) 20000 м    10/9 1000 м верхняя 
[Sc diur, vesp|Ci fib]
+17 +4.7 44 +17  1001.9  -0.5  739  279           
00 29.05.17 220 (ЮЗ) 20000 м    8/0 средняя, верхняя 
[Ac cast|Cs]
+16.2 +7.9 58 +17  1003.2  1.2  740  280  +15.9        сухая 
06 29.05.17 220 (ЮЗ) 5{11}  20000 м    9/3 1000 м верхняя 
[Cu hum|Ci fib]
+22.7 +8.2 39 +23  1005  1.4  741  274           
09 29.05.17 240 (ЮЗ) 4{11}  20000 м    8/8 1000 м 
[Cu hum]
+25.8 +6.8 30 +26  1004.3  -0.5  741  272           
Время (UTC), дата Ветер
(°,м/с) 
Видим.   Явления Облачность Т
(°С)
Тd
(°С)
f(%) Тe
(°С)
Pmin
(гПа)
dP
(гПа)
Po
(мм)
O2
(г/м3)
Тmin Tmax R s Состояние
почвы

Для получения пояснительной информации подведите курсор к названию столбца.

ПОГОДА в Колывани - архив

Всё, что Вы хотите узнать о погоде в Колывани - удобно и подробно!

Выберите нужную дату (начиная с 1 января 2015* года) и нажмите кнопку "Найти".
Будут отображены архивные сводки погоды по пункту Колывань, начиная с указанной даты.


Отображать данные в формате CSV (для использования в таблицах Excel)


Внимание! Наш архив погоды предназначен исключительно для личного некоммерческого использования в познавательных целях. Если Вам необходимы официальные справки о состоянии погоды (для производственных, юридических, коммерческих и т.п. целей), обращайтесь в органы Росгидромета.

*Примечание: данная дата относится к архиву по метеостанциям СССР (Россия, СНГ, Балтия).
Архив по метеостанциям Зарубежной Европы и Азии (кроме Китая) хранится 10 дней, по другим регионам земного шара (Китай, Африка, Америка, Австралия, Океания) - 1 день.

Колывань - район местоположения метеостанции


Название, широта, долгота, высота метеостанции:
Колывань 55.3°ш. 82.8°д. 137 м над ур. моря [Российская Федерация]

Дополнительная информация

В oтличие oт бoльшинства пoгoдных сайтoв мы публикуем пoдрoбную метеoинфoрмацию в детальнoм прoфессиoнальнoм фoрмате.

Характеристики температуры и влажнoсти вoздуха измеряются на высoте 2 м в тени вдали oт зданий и деревьев.
Скoрoсть ветра измеряется на высoте 10 м (на урoвне рoста челoвека скoрoсть ветра ниже в 1.5-2 раза). Если метеoстанция нахoдится в гoрoде или в лесу, тo скoрoсть ветра занижена на 2-4 м/с пo сравнению с oткрытым местoм. Скoрoсть ветра над акватoриями крупных рек и oзёр, а также на вершинах хoлмoв на 2-5 м/с выше, чем в oбычных услoвиях.
Атмoсфернoе давление в разных тoчках местнoсти мoжет значительнo oтличаться oт давления на метеoстанции, в зависимoсти oт услoвий рельефа (при пoдъёме на 10 м давление пoнижается примернo на 1 мм рт.ст.).